******** Week 358 almanac for PRN-1 ******** ID: 1 Health: 0 Eccentricity: 0.001534938812 Time of Applicability(s): 503808 Orbital Inclination(rad): 0.9583928468 Rate of Right Ascen(r/s): -7.897471818e-09 SQRT(A) (m 1/2): 5153.580078 Right Ascen at Week(rad): -2.897958606 Argument of Perigee(rad): 0.05349008986 Mean Anom(rad): 1.886429353 Af0(s): 0.0002600176392 Af1(s/s): -7.275958e-12 week: 358 ******** Week 358 almanac for PRN-2 ******** ID: 2 Health: 0 Eccentricity: 0.01693296432 Time of Applicability(s): 503808 Orbital Inclination(rad): 0.9637078505 Rate of Right Ascen(r/s): -7.863184676e-09 SQRT(A) (m 1/2): 5153.550293 Right Ascen at Week(rad): -3.06045009 Argument of Perigee(rad): -0.8206272909 Mean Anom(rad): -2.959679236 Af0(s): 3.391534424e-05 Af1(s/s): 7.275958e-12 week: 358 ******** Week 358 almanac for PRN-3 ******** ID: 3 Health: 0 Eccentricity: 0.006449699402 Time of Applicability(s): 503808 Orbital Inclination(rad): 0.9930332488 Rate of Right Ascen(r/s): -7.588887536e-09 SQRT(A) (m 1/2): 5153.589844 Right Ascen at Week(rad): -1.911427697 Argument of Perigee(rad): 1.203442009 Mean Anom(rad): -0.2775531509 Af0(s): 0.000445421521 Af1(s/s): -1.091394e-11 week: 358 ******** Week 358 almanac for PRN-4 ******** ID: 4 Health: 0 Eccentricity: 0.003728866577 Time of Applicability(s): 503808 Orbital Inclination(rad): 0.9704369928 Rate of Right Ascen(r/s): -8.114623721e-09 SQRT(A) (m 1/2): 5153.678223 Right Ascen at Week(rad): -0.8403540741 Argument of Perigee(rad): -2.8844595 Mean Anom(rad): 2.719034128 Af0(s): 3.542269287e-05 Af1(s/s): 3.637979e-12 week: 358 ******** Week 358 almanac for PRN-5 ******** ID: 5 Health: 0 Eccentricity: 0.005386829376 Time of Applicability(s): 503808 Orbital Inclination(rad): 0.9796169091 Rate of Right Ascen(r/s): -7.714607058e-09 SQRT(A) (m 1/2): 5153.654785 Right Ascen at Week(rad): -1.971051463 Argument of Perigee(rad): 1.418554352 Mean Anom(rad): -2.909602404 Af0(s): -0.0001808818359 Af1(s/s): 0 week: 358 ******** Week 358 almanac for PRN-6 ******** ID: 6 Health: 0 Eccentricity: 0.003872394562 Time of Applicability(s): 503808 Orbital Inclination(rad): 0.9872987972 Rate of Right Ascen(r/s): -7.600316584e-09 SQRT(A) (m 1/2): 5153.588379 Right Ascen at Week(rad): -2.947691266 Argument of Perigee(rad): -0.5822883964 Mean Anom(rad): 1.059634306 Af0(s): -0.0004831052368 Af1(s/s): 0 week: 358 ******** Week 358 almanac for PRN-7 ******** ID: 7 Health: 0 Eccentricity: 0.02041387558 Time of Applicability(s): 503808 Orbital Inclination(rad): 0.9513521146 Rate of Right Ascen(r/s): -7.863184676e-09 SQRT(A) (m 1/2): 5153.578613 Right Ascen at Week(rad): 0.1682240631 Argument of Perigee(rad): -1.995441233 Mean Anom(rad): 0.1811205871 Af0(s): -0.0001198342163 Af1(s/s): -3.637979e-12 week: 358 ******** Week 358 almanac for PRN-8 ******** ID: 8 Health: 0 Eccentricity: 0.0115442276 Time of Applicability(s): 503808 Orbital Inclination(rad): 0.9434425262 Rate of Right Ascen(r/s): -8.457495146e-09 SQRT(A) (m 1/2): 5153.620117 Right Ascen at Week(rad): 2.215903409 Argument of Perigee(rad): 0.5198914059 Mean Anom(rad): 3.013892125 Af0(s): 0.0003866349243 Af1(s/s): -3.637979e-12 week: 358 ******** Week 358 almanac for PRN-9 ******** ID: 9 Health: 0 Eccentricity: 0.003369808197 Time of Applicability(s): 503808 Orbital Inclination(rad): 0.9645587305 Rate of Right Ascen(r/s): -8.206056101e-09 SQRT(A) (m 1/2): 5153.723145 Right Ascen at Week(rad): -0.9045408337 Argument of Perigee(rad): 2.070906647 Mean Anom(rad): -2.674942666 Af0(s): 0.0006082151733 Af1(s/s): 0 week: 358 ******** Week 358 almanac for PRN-10 ******** ID: 10 Health: 0 Eccentricity: 0.01094293594 Time of Applicability(s): 503808 Orbital Inclination(rad): 0.9925718562 Rate of Right Ascen(r/s): -7.611745631e-09 SQRT(A) (m 1/2): 5153.607422 Right Ascen at Week(rad): -1.913936145 Argument of Perigee(rad): -2.25741227 Mean Anom(rad): -1.263535032 Af0(s): -0.0004650170532 Af1(s/s): 0 week: 358 ******** Week 358 almanac for PRN-11 ******** ID: 11 Health: 0 Eccentricity: 0.002223968506 Time of Applicability(s): 503808 Orbital Inclination(rad): 0.9641512668 Rate of Right Ascen(r/s): -7.828897533e-09 SQRT(A) (m 1/2): 5153.523438 Right Ascen at Week(rad): -2.928685784 Argument of Perigee(rad): -2.292444407 Mean Anom(rad): 2.113038687 Af0(s): -0.0003414144653 Af1(s/s): 1.455192e-11 week: 358 ******** Week 358 almanac for PRN-12 ******** ID: 12 Health: 0 Eccentricity: 0.009048461914 Time of Applicability(s): 503808 Orbital Inclination(rad): 0.9589501132 Rate of Right Ascen(r/s): -7.908900866e-09 SQRT(A) (m 1/2): 5153.731445 Right Ascen at Week(rad): 1.285808838 Argument of Perigee(rad): 1.557452268 Mean Anom(rad): -0.4672345942 Af0(s): -0.0004800905395 Af1(s/s): 0 week: 358 ******** Week 358 almanac for PRN-13 ******** ID: 13 Health: 0 Eccentricity: 0.009970664978 Time of Applicability(s): 503808 Orbital Inclination(rad): 0.9761474759 Rate of Right Ascen(r/s): -8.057478483e-09 SQRT(A) (m 1/2): 5153.614746 Right Ascen at Week(rad): -0.7295456835 Argument of Perigee(rad): 0.9975181956 Mean Anom(rad): 2.760945209 Af0(s): 0.0005418918335 Af1(s/s): 0 week: 358 ******** Week 358 almanac for PRN-14 ******** ID: 14 Health: 0 Eccentricity: 0.006670951843 Time of Applicability(s): 503808 Orbital Inclination(rad): 0.9423220012 Rate of Right Ascen(r/s): -8.080336578e-09 SQRT(A) (m 1/2): 5153.600098 Right Ascen at Week(rad): 1.23131432 Argument of Perigee(rad): -2.755301763 Mean Anom(rad): -0.6328442237 Af0(s): 0.0005810828979 Af1(s/s): 3.637979e-12 week: 358 ******** Week 358 almanac for PRN-15 ******** ID: 15 Health: 0 Eccentricity: 0.01660680771 Time of Applicability(s): 503808 Orbital Inclination(rad): 0.9423579538 Rate of Right Ascen(r/s): -8.446066098e-09 SQRT(A) (m 1/2): 5153.625488 Right Ascen at Week(rad): -1.048378872 Argument of Perigee(rad): 1.499684558 Mean Anom(rad): 2.015262018 Af0(s): 0.0003067454468 Af1(s/s): 3.637979e-12 week: 358 ******** Week 358 almanac for PRN-16 ******** ID: 16 Health: 0 Eccentricity: 0.01505041122 Time of Applicability(s): 503808 Orbital Inclination(rad): 0.9580812569 Rate of Right Ascen(r/s): -7.954617056e-09 SQRT(A) (m 1/2): 5153.59375 Right Ascen at Week(rad): 1.302808086 Argument of Perigee(rad): 0.928883416 Mean Anom(rad): -2.248679515 Af0(s): 0.0001673156982 Af1(s/s): 7.275958e-12 week: 358 ******** Week 358 almanac for PRN-17 ******** ID: 17 Health: 0 Eccentricity: 0.01268625259 Time of Applicability(s): 503808 Orbital Inclination(rad): 0.9591897977 Rate of Right Ascen(r/s): -8.308917528e-09 SQRT(A) (m 1/2): 5153.526367 Right Ascen at Week(rad): 2.320468019 Argument of Perigee(rad): -1.125011249 Mean Anom(rad): 2.935392081 Af0(s): -5.351087646e-05 Af1(s/s): -1.091394e-11 week: 358 ******** Week 358 almanac for PRN-18 ******** ID: 18 Health: 0 Eccentricity: 0.005734920502 Time of Applicability(s): 503808 Orbital Inclination(rad): 0.9722466107 Rate of Right Ascen(r/s): -7.771752296e-09 SQRT(A) (m 1/2): 5153.595703 Right Ascen at Week(rad): -2.95258083 Argument of Perigee(rad): -2.860638231 Mean Anom(rad): 0.9481034912 Af0(s): -0.0003323703735 Af1(s/s): 1.091394e-11 week: 358 ******** Week 358 almanac for PRN-19 ******** ID: 19 Health: 0 Eccentricity: 0.01109266281 Time of Applicability(s): 503808 Orbital Inclination(rad): 0.9583928468 Rate of Right Ascen(r/s): -8.297488481e-09 SQRT(A) (m 1/2): 5153.657715 Right Ascen at Week(rad): 2.364371478 Argument of Perigee(rad): 2.927055555 Mean Anom(rad): -1.520970789 Af0(s): 0.0005456602051 Af1(s/s): 0 week: 358 ******** Week 358 almanac for PRN-20 ******** ID: 20 Health: 255 Eccentricity: 0.0003037452698 Time of Applicability(s): 503808 Orbital Inclination(rad): 0.9599867487 Rate of Right Ascen(r/s): -8.240343243e-09 SQRT(A) (m 1/2): 5153.631836 Right Ascen at Week(rad): -0.8988812835 Argument of Perigee(rad): 1.297348523 Mean Anom(rad): 2.48447326 Af0(s): 0 Af1(s/s): 0 week: 358 ******** Week 358 almanac for PRN-21 ******** ID: 21 Health: 0 Eccentricity: 0.0006999969482 Time of Applicability(s): 503808 Orbital Inclination(rad): 0.9624495069 Rate of Right Ascen(r/s): -7.931758961e-09 SQRT(A) (m 1/2): 5153.709473 Right Ascen at Week(rad): -1.904875322 Argument of Perigee(rad): -0.3672153766 Mean Anom(rad): -0.7236209823 Af0(s): 0.0003165432129 Af1(s/s): 3.637979e-12 week: 358 ******** Week 358 almanac for PRN-22 ******** ID: 22 Health: 0 Eccentricity: 0.01211547852 Time of Applicability(s): 503808 Orbital Inclination(rad): 0.9575179983 Rate of Right Ascen(r/s): -7.966046103e-09 SQRT(A) (m 1/2): 5153.57666 Right Ascen at Week(rad): 1.3061588 Argument of Perigee(rad): -0.9946659501 Mean Anom(rad): -2.698948192 Af0(s): -3.466901855e-05 Af1(s/s): 3.637979e-12 week: 358 ******** Week 358 almanac for PRN-23 ******** ID: 23 Health: 0 Eccentricity: 0.006018638611 Time of Applicability(s): 503808 Orbital Inclination(rad): 0.9875804265 Rate of Right Ascen(r/s): -7.634603726e-09 SQRT(A) (m 1/2): 5153.659668 Right Ascen at Week(rad): -1.945983086 Argument of Perigee(rad): -2.740468663 Mean Anom(rad): -0.1754958661 Af0(s): 0.0004861199341 Af1(s/s): 3.637979e-12 week: 358 ******** Week 358 almanac for PRN-24 ******** ID: 24 Health: 0 Eccentricity: 0.01788043976 Time of Applicability(s): 503808 Orbital Inclination(rad): 0.9353471823 Rate of Right Ascen(r/s): -8.114623721e-09 SQRT(A) (m 1/2): 5153.59668 Right Ascen at Week(rad): 0.05994958709 Argument of Perigee(rad): 1.134180679 Mean Anom(rad): 1.162336866 Af0(s): -8.968724365e-05 Af1(s/s): 1.455192e-11 week: 358 ******** Week 358 almanac for PRN-25 ******** ID: 25 Health: 0 Eccentricity: 0.01294660568 Time of Applicability(s): 503808 Orbital Inclination(rad): 0.9473553756 Rate of Right Ascen(r/s): -7.988904198e-09 SQRT(A) (m 1/2): 5153.678711 Right Ascen at Week(rad): 1.192067856 Argument of Perigee(rad): 1.156872809 Mean Anom(rad): -0.6083173839 Af0(s): 0.0003497048828 Af1(s/s): -3.637979e-12 week: 358 ******** Week 358 almanac for PRN-26 ******** ID: 26 Health: 0 Eccentricity: 0.01099538803 Time of Applicability(s): 503808 Orbital Inclination(rad): 0.9281806158 Rate of Right Ascen(r/s): -8.171768958e-09 SQRT(A) (m 1/2): 5153.65918 Right Ascen at Week(rad): 1.117703868 Argument of Perigee(rad): 0.7090365551 Mean Anom(rad): -1.43031949 Af0(s): -0.0002607713135 Af1(s/s): -7.275958e-12 week: 358 ******** Week 358 almanac for PRN-27 ******** ID: 27 Health: 0 Eccentricity: 0.01432800293 Time of Applicability(s): 503808 Orbital Inclination(rad): 0.9525565292 Rate of Right Ascen(r/s): -8.354633718e-09 SQRT(A) (m 1/2): 5153.605957 Right Ascen at Week(rad): 2.247851855 Argument of Perigee(rad): 0.8784949934 Mean Anom(rad): 3.112202467 Af0(s): -3.69300415e-05 Af1(s/s): -1.091394e-11 week: 358 ******** Week 358 almanac for PRN-28 ******** ID: 28 Health: 0 Eccentricity: 0.0004034042358 Time of Applicability(s): 503808 Orbital Inclination(rad): 0.9622997041 Rate of Right Ascen(r/s): -7.783181343e-09 SQRT(A) (m 1/2): 5153.741699 Right Ascen at Week(rad): 0.142376337 Argument of Perigee(rad): 0.09252945152 Mean Anom(rad): 0.4305055664 Af0(s): -0.0004680317505 Af1(s/s): 7.275958e-12 week: 358 ******** Week 358 almanac for PRN-29 ******** ID: 29 Health: 0 Eccentricity: 0.003346443176 Time of Applicability(s): 503808 Orbital Inclination(rad): 0.9618443035 Rate of Right Ascen(r/s): -8.263201338e-09 SQRT(A) (m 1/2): 5153.707031 Right Ascen at Week(rad): 2.337162418 Argument of Perigee(rad): 2.740035358 Mean Anom(rad): 2.982862345 Af0(s): -0.0002939329834 Af1(s/s): 7.275958e-12 week: 358 ******** Week 358 almanac for PRN-30 ******** ID: 30 Health: 0 Eccentricity: 0.008025169373 Time of Applicability(s): 503808 Orbital Inclination(rad): 0.9366055259 Rate of Right Ascen(r/s): -8.023191341e-09 SQRT(A) (m 1/2): 5153.712891 Right Ascen at Week(rad): 0.159372964 Argument of Perigee(rad): -2.326491964 Mean Anom(rad): 0.02718658872 Af0(s): 0.0001009923584 Af1(s/s): 1.455192e-11 week: 358 ******** Week 358 almanac for PRN-31 ******** ID: 31 Health: 0 Eccentricity: 0.01081418991 Time of Applicability(s): 503808 Orbital Inclination(rad): 0.9551211534 Rate of Right Ascen(r/s): -7.817468486e-09 SQRT(A) (m 1/2): 5153.726562 Right Ascen at Week(rad): 0.1923902526 Argument of Perigee(rad): 0.9385138643 Mean Anom(rad): -0.9176699266 Af0(s): -0.0001311393311 Af1(s/s): 3.637979e-12 week: 358 ******** Week 358 almanac for PRN-32 ******** ID: 32 Health: 0 Eccentricity: 0.009320259094 Time of Applicability(s): 503808 Orbital Inclination(rad): 0.9676206999 Rate of Right Ascen(r/s): -8.148910863e-09 SQRT(A) (m 1/2): 5153.668457 Right Ascen at Week(rad): -0.8875666771 Argument of Perigee(rad): -2.004629389 Mean Anom(rad): -2.585923095 Af0(s): -6.632333984e-05 Af1(s/s): 1.818989e-11 week: 358